Time,TemperatureF,DewpointF,PressureIn,WindDirection,WindDirectionDegrees,WindSpeedMPH,WindSpeedGustMPH,Humidity,HourlyPrecipIn,Conditions,Clouds,dailyrainin,SolarRadiationWatts/m^2,SoftwareType,DateUTC
2013-05-16 00:03:00,58.3,44.9,29.90,WSW,253,0.0,1.0,61,0.00,,,0.00,0,Wunderground v.1.15,2013-05-16 05:03:00,
2013-05-16 00:08:00,58.2,44.8,29.91,WSW,253,0.0,1.0,61,0.00,,,0.00,0,Wunderground v.1.15,2013-05-16 05:08:00,
2013-05-16 00:14:00,58.1,45.1,29.91,WSW,253,0.0,0.0,62,0.00,,,0.00,0,Wunderground v.1.15,2013-05-16 05:14:00,
2013-05-16 00:19:00,57.9,45.0,29.91,WSW,253,2.0,2.0,62,0.00,,,0.00,0,Wunderground v.1.15,2013-05-16 05:19:00,
2013-05-16 00:24:00,57.7,45.2,29.91,WSW,253,0.0,1.0,63,0.00,,,0.00,0,Wunderground v.1.15,2013-05-16 05:24:00,
2013-05-16 00:30:00,57.3,45.2,29.91,WSW,253,1.0,1.0,64,0.00,,,0.00,0,Wunderground v.1.15,2013-05-16 05:30:00,
2013-05-16 00:36:00,57.0,44.9,29.91,WSW,253,0.0,1.0,64,0.00,,,0.00,0,Wunderground v.1.15,2013-05-16 05:36:00,
2013-05-16 00:41:00,56.9,44.8,29.91,WSW,253,1.0,1.0,64,0.00,,,0.00,0,Wunderground v.1.15,2013-05-16 05:41:00,
2013-05-16 00:46:00,56.9,44.8,29.91,WSW,253,0.0,1.0,64,0.00,,,0.00,0,Wunderground v.1.15,2013-05-16 05:46:00,
2013-05-16 00:51:00,56.9,44.8,29.91,WSW,253,0.0,2.0,64,0.00,,,0.00,0,Wunderground v.1.15,2013-05-16 05:51:00,
2013-05-16 00:57:00,56.9,44.8,29.91,WSW,253,0.0,2.0,64,0.00,,,0.00,0,Wunderground v.1.15,2013-05-16 05:57:00,
2013-05-16 01:02:00,57.0,45.3,29.91,SSW,213,2.0,2.0,65,0.00,,,0.00,0,Wunderground v.1.15,2013-05-16 06:02:00,
2013-05-16 01:08:00,56.8,45.6,29.91,SW,214,0.0,2.0,66,0.00,,,0.00,0,Wunderground v.1.15,2013-05-16 06:08:00,
2013-05-16 01:13:00,56.6,45.4,29.91,SW,214,1.0,2.0,66,0.00,,,0.00,0,Wunderground v.1.15,2013-05-16 06:13:00,
2013-05-16 01:18:00,56.6,45.4,29.91,SW,214,0.0,2.0,66,0.00,,,0.00,0,Wunderground v.1.15,2013-05-16 06:18:00,
2013-05-16 01:24:00,56.3,45.1,29.91,SW,214,0.0,0.0,66,0.00,,,0.00,0,Wunderground v.1.15,2013-05-16 06:24:00,
2013-05-16 01:30:00,55.7,44.9,29.91,SW,214,0.0,0.0,67,0.00,,,0.00,0,Wunderground v.1.15,2013-05-16 06:30:00,
2013-05-16 01:35:00,55.2,45.2,29.91,SW,214,0.0,0.0,69,0.00,,,0.00,0,Wunderground v.1.15,2013-05-16 06:35:00,
2013-05-16 01:41:00,54.7,45.1,29.91,SW,214,0.0,0.0,70,0.00,,,0.00,0,Wunderground v.1.15,2013-05-16 06:41:00,
2013-05-16 01:46:00,54.5,45.3,29.91,SW,214,0.0,0.0,71,0.00,,,0.00,0,Wunderground v.1.15,2013-05-16 06:46:00,
2013-05-16 01:51:00,54.2,45.0,29.91,SW,214,0.0,0.0,71,0.00,,,0.00,0,Wunderground v.1.15,2013-05-16 06:51:00,
2013-05-16 01:56:00,54.0,45.2,29.91,SW,214,0.0,0.0,72,0.00,,,0.00,0,Wunderground v.1.15,2013-05-16 06:56:00,
2013-05-16 02:01:00,53.9,45.1,29.91,SW,214,0.0,0.0,72,0.00,,,0.00,0,Wunderground v.1.15,2013-05-16 07:01:00,
2013-05-16 02:06:00,53.9,45.4,29.91,SW,214,0.0,0.0,73,0.00,,,0.00,0,Wunderground v.1.15,2013-05-16 07:06:00,
2013-05-16 02:11:00,53.9,45.4,29.92,SW,214,0.0,0.0,73,0.00,,,0.00,0,Wunderground v.1.15,2013-05-16 07:11:00,
2013-05-16 02:16:00,54.1,45.6,29.92,SW,214,0.0,3.0,73,0.00,,,0.00,0,Wunderground v.1.15,2013-05-16 07:16:00,
2013-05-16 02:21:00,54.4,45.6,29.92,SW,214,2.0,2.0,72,0.00,,,0.00,0,Wunderground v.1.15,2013-05-16 07:21:00,
2013-05-16 02:26:00,54.6,45.8,29.92,SW,214,0.0,2.0,72,0.00,,,0.00,0,Wunderground v.1.15,2013-05-16 07:26:00,
2013-05-16 02:31:00,54.9,45.7,29.92,SW,214,0.0,0.0,71,0.00,,,0.00,0,Wunderground v.1.15,2013-05-16 07:31:00,
2013-05-16 02:36:00,54.9,45.7,29.92,SW,214,0.0,1.0,71,0.00,,,0.00,0,Wunderground v.1.15,2013-05-16 07:36:00,
2013-05-16 02:41:00,54.9,45.7,29.92,SW,214,0.0,0.0,71,0.00,,,0.00,0,Wunderground v.1.15,2013-05-16 07:41:00,
2013-05-16 02:46:00,54.8,45.6,29.92,SW,214,0.0,1.0,71,0.00,,,0.00,0,Wunderground v.1.15,2013-05-16 07:46:00,
2013-05-16 02:51:00,54.8,45.6,29.92,SW,214,0.0,1.0,71,0.00,,,0.00,0,Wunderground v.1.15,2013-05-16 07:51:00,
2013-05-16 02:56:00,54.7,45.5,29.93,SW,214,0.0,1.0,71,0.00,,,0.00,0,Wunderground v.1.15,2013-05-16 07:56:00,
2013-05-16 03:01:00,54.6,45.4,29.92,SW,214,0.0,1.0,71,0.00,,,0.00,0,Wunderground v.1.15,2013-05-16 08:01:00,
2013-05-16 03:06:00,54.6,45.4,29.92,SW,214,0.0,1.0,71,0.00,,,0.00,0,Wunderground v.1.15,2013-05-16 08:06:00,
2013-05-16 03:11:00,54.6,45.4,29.92,SW,214,0.0,1.0,71,0.00,,,0.00,0,Wunderground v.1.15,2013-05-16 08:11:00,
2013-05-16 03:16:00,54.5,45.3,29.93,SW,214,0.0,1.0,71,0.00,,,0.00,0,Wunderground v.1.15,2013-05-16 08:16:00,
2013-05-16 03:21:00,54.4,45.6,29.92,SW,214,0.0,2.0,72,0.00,,,0.00,0,Wunderground v.1.15,2013-05-16 08:21:00,
2013-05-16 03:26:00,54.2,45.4,29.93,SW,214,0.0,2.0,72,0.00,,,0.00,0,Wunderground v.1.15,2013-05-16 08:26:00,
2013-05-16 03:31:00,54.0,45.5,29.93,SW,214,0.0,0.0,73,0.00,,,0.00,0,Wunderground v.1.15,2013-05-16 08:31:00,
2013-05-16 03:36:00,53.8,45.3,29.93,SW,214,0.0,0.0,73,0.00,,,0.00,0,Wunderground v.1.15,2013-05-16 08:36:00,
2013-05-16 03:41:00,53.5,45.4,29.93,SW,214,0.0,0.0,74,0.00,,,0.00,0,Wunderground v.1.15,2013-05-16 08:41:00,
2013-05-16 03:46:00,53.3,45.2,29.94,SW,214,0.0,0.0,74,0.00,,,0.00,0,Wunderground v.1.15,2013-05-16 08:46:00,
2013-05-16 03:59:00,52.8,45.4,29.94,SW,214,0.0,1.0,76,0.00,,,0.00,0,Wunderground v.1.15,2013-05-16 08:59:00,
2013-05-16 04:04:00,52.6,45.2,29.94,SW,214,0.0,1.0,76,0.00,,,0.00,0,Wunderground v.1.15,2013-05-16 09:04:00,
2013-05-16 04:09:00,52.4,45.4,29.94,SW,214,0.0,2.0,77,0.00,,,0.00,0,Wunderground v.1.15,2013-05-16 09:09:00,
2013-05-16 04:14:00,52.2,45.5,29.94,SW,214,1.0,2.0,78,0.00,,,0.00,0,Wunderground v.1.15,2013-05-16 09:14:00,
2013-05-16 04:19:00,52.3,45.6,29.95,SW,214,0.0,2.0,78,0.00,,,0.00,0,Wunderground v.1.15,2013-05-16 09:19:00,
2013-05-16 04:24:00,52.2,45.5,29.95,SW,214,0.0,1.0,78,0.00,,,0.00,0,Wunderground v.1.15,2013-05-16 09:24:00,
2013-05-16 04:29:00,52.2,45.5,29.95,SW,214,0.0,1.0,78,0.00,,,0.00,0,Wunderground v.1.15,2013-05-16 09:29:00,
2013-05-16 04:34:00,52.0,45.4,29.95,SW,214,0.0,0.0,78,0.00,,,0.00,0,Wunderground v.1.15,2013-05-16 09:34:00,
2013-05-16 04:39:00,51.8,45.5,29.95,SW,214,0.0,0.0,79,0.00,,,0.00,0,Wunderground v.1.15,2013-05-16 09:39:00,
2013-05-16 04:44:00,51.7,45.4,29.95,SW,214,0.0,0.0,79,0.00,,,0.00,0,Wunderground v.1.15,2013-05-16 09:44:00,
2013-05-16 04:49:00,51.5,45.5,29.95,SW,214,0.0,0.0,80,0.00,,,0.00,0,Wunderground v.1.15,2013-05-16 09:49:00,
2013-05-16 04:54:00,51.3,45.3,29.94,SW,214,0.0,0.0,80,0.00,,,0.00,0,Wunderground v.1.15,2013-05-16 09:54:00,
2013-05-16 04:59:00,51.3,45.3,29.94,SW,214,0.0,1.0,80,0.00,,,0.00,0,Wunderground v.1.15,2013-05-16 09:59:00,
2013-05-16 05:04:00,51.2,45.2,29.95,SW,214,1.0,1.0,80,0.00,,,0.00,0,Wunderground v.1.15,2013-05-16 10:04:00,
2013-05-16 05:09:00,50.8,45.2,29.95,SW,214,1.0,1.0,81,0.00,,,0.00,0,Wunderground v.1.15,2013-05-16 10:09:00,
2013-05-16 05:14:00,50.6,45.3,29.95,SW,214,0.0,0.0,82,0.00,,,0.00,0,Wunderground v.1.15,2013-05-16 10:14:00,
2013-05-16 05:19:00,50.5,45.2,29.95,SW,214,2.0,2.0,82,0.00,,,0.00,0,Wunderground v.1.15,2013-05-16 10:19:00,
2013-05-16 05:24:00,50.6,45.6,29.95,SW,214,2.0,2.0,83,0.00,,,0.00,0,Wunderground v.1.15,2013-05-16 10:24:00,
2013-05-16 05:29:00,51.0,45.7,29.95,SW,214,0.0,2.0,82,0.00,,,0.00,5,Wunderground v.1.15,2013-05-16 10:29:00,
2013-05-16 05:34:00,51.3,45.7,29.95,SW,214,0.0,1.0,81,0.00,,,0.00,7,Wunderground v.1.15,2013-05-16 10:34:00,
2013-05-16 05:39:00,51.3,45.7,29.95,SW,214,0.0,1.0,81,0.00,,,0.00,9,Wunderground v.1.15,2013-05-16 10:39:00,
2013-05-16 05:44:00,51.2,45.9,29.95,SW,214,0.0,1.0,82,0.00,,,0.00,12,Wunderground v.1.15,2013-05-16 10:44:00,
2013-05-16 05:50:00,51.1,45.8,29.95,SW,214,0.0,1.0,82,0.00,,,0.00,16,Wunderground v.1.15,2013-05-16 10:50:00,
2013-05-16 05:55:00,51.0,45.7,29.95,SW,214,0.0,1.0,82,0.00,,,0.00,18,Wunderground v.1.15,2013-05-16 10:55:00,
2013-05-16 06:00:00,50.9,45.6,29.96,SW,214,0.0,0.0,82,0.00,,,0.00,21,Wunderground v.1.15,2013-05-16 11:00:00,
2013-05-16 06:05:00,50.9,45.9,29.96,SW,214,0.0,0.0,83,0.00,,,0.00,23,Wunderground v.1.15,2013-05-16 11:05:00,
2013-05-16 06:10:00,51.0,46.0,29.96,SW,214,0.0,0.0,83,0.00,,,0.00,26,Wunderground v.1.15,2013-05-16 11:10:00,
2013-05-16 06:15:00,51.1,46.1,29.96,SW,214,0.0,0.0,83,0.00,,,0.00,28,Wunderground v.1.15,2013-05-16 11:15:00,
2013-05-16 06:20:00,51.2,46.2,29.96,SW,214,0.0,0.0,83,0.00,,,0.00,32,Wunderground v.1.15,2013-05-16 11:20:00,
2013-05-16 06:25:00,51.2,46.2,29.97,SW,214,0.0,0.0,83,0.00,,,0.00,33,Wunderground v.1.15,2013-05-16 11:25:00,
2013-05-16 06:30:00,51.5,46.8,29.97,SW,214,0.0,0.0,84,0.00,,,0.00,35,Wunderground v.1.15,2013-05-16 11:30:00,
2013-05-16 06:35:00,51.9,46.9,29.97,SW,214,0.0,0.0,83,0.00,,,0.00,49,Wunderground v.1.15,2013-05-16 11:35:00,
2013-05-16 06:40:00,52.3,47.0,29.97,SW,214,0.0,0.0,82,0.00,,,0.00,39,Wunderground v.1.15,2013-05-16 11:40:00,
2013-05-16 06:45:00,52.7,47.0,29.97,SW,214,0.0,0.0,81,0.00,,,0.00,40,Wunderground v.1.15,2013-05-16 11:45:00,
2013-05-16 06:50:00,53.1,47.4,29.97,SW,214,0.0,0.0,81,0.00,,,0.00,42,Wunderground v.1.15,2013-05-16 11:50:00,
2013-05-16 06:55:00,53.4,47.4,29.97,SW,214,0.0,0.0,80,0.00,,,0.00,46,Wunderground v.1.15,2013-05-16 11:55:00,
2013-05-16 07:00:00,53.7,47.3,29.97,SW,214,0.0,0.0,79,0.00,,,0.00,46,Wunderground v.1.15,2013-05-16 12:00:00,
2013-05-16 07:05:00,54.1,48.4,29.98,SW,214,0.0,0.0,81,0.00,,,0.00,51,Wunderground v.1.15,2013-05-16 12:05:00,
2013-05-16 07:10:00,54.5,48.5,29.98,SW,214,0.0,0.0,80,0.00,,,0.00,51,Wunderground v.1.15,2013-05-16 12:10:00,
2013-05-16 07:15:00,55.1,48.7,29.98,SW,214,0.0,0.0,79,0.00,,,0.00,53,Wunderground v.1.15,2013-05-16 12:15:00,
2013-05-16 07:20:00,55.8,49.7,29.98,SW,214,0.0,0.0,80,0.00,,,0.00,77,Wunderground v.1.15,2013-05-16 12:20:00,
2013-05-16 07:25:00,56.4,50.0,29.98,SW,214,0.0,1.0,79,0.00,,,0.00,97,Wunderground v.1.15,2013-05-16 12:25:00,
2013-05-16 07:30:00,57.1,50.6,29.98,SW,214,0.0,1.0,79,0.00,,,0.00,255,Wunderground v.1.15,2013-05-16 12:30:00,
2013-05-16 07:35:00,57.8,50.6,29.98,SW,214,1.0,2.0,77,0.00,,,0.00,304,Wunderground v.1.15,2013-05-16 12:35:00,
2013-05-16 07:40:00,58.5,51.0,29.98,SW,214,0.0,1.0,76,0.00,,,0.00,323,Wunderground v.1.15,2013-05-16 12:40:00,
2013-05-16 07:45:00,59.3,51.4,29.99,SW,214,0.0,1.0,75,0.00,,,0.00,339,Wunderground v.1.15,2013-05-16 12:45:00,
2013-05-16 07:50:00,59.8,51.1,29.98,SW,214,0.0,0.0,73,0.00,,,0.00,357,Wunderground v.1.15,2013-05-16 12:50:00,
2013-05-16 07:56:00,60.5,51.8,29.99,SW,214,0.0,1.0,73,0.00,,,0.00,373,Wunderground v.1.15,2013-05-16 12:56:00,
2013-05-16 08:01:00,61.2,52.1,29.99,SW,214,0.0,1.0,72,0.00,,,0.00,392,Wunderground v.1.15,2013-05-16 13:01:00,
2013-05-16 08:06:00,62.0,52.5,29.99,SW,214,0.0,1.0,71,0.00,,,0.00,408,Wunderground v.1.15,2013-05-16 13:06:00,
2013-05-16 08:11:00,62.9,52.6,29.99,SW,214,0.0,0.0,69,0.00,,,0.00,424,Wunderground v.1.15,2013-05-16 13:11:00,
2013-05-16 08:16:00,63.6,52.0,29.99,SW,214,0.0,3.0,66,0.00,,,0.00,441,Wunderground v.1.15,2013-05-16 13:16:00,
2013-05-16 08:21:00,64.0,52.0,29.99,SW,214,1.0,3.0,65,0.00,,,0.00,457,Wunderground v.1.15,2013-05-16 13:21:00,
2013-05-16 08:26:00,64.3,51.9,29.99,SW,214,0.0,3.0,64,0.00,,,0.00,473,Wunderground v.1.15,2013-05-16 13:26:00,
2013-05-16 08:31:00,64.8,52.8,29.99,SW,214,0.0,3.0,65,0.00,,,0.00,490,Wunderground v.1.15,2013-05-16 13:31:00,
2013-05-16 08:37:00,65.3,52.8,29.99,SW,214,0.0,3.0,64,0.00,,,0.00,506,Wunderground v.1.15,2013-05-16 13:37:00,
2013-05-16 08:42:00,65.7,53.2,29.99,SW,214,0.0,1.0,64,0.00,,,0.00,520,Wunderground v.1.15,2013-05-16 13:42:00,
2013-05-16 08:47:00,66.1,53.1,29.99,SW,214,0.0,4.0,63,0.00,,,0.00,534,Wunderground v.1.15,2013-05-16 13:47:00,
2013-05-16 08:52:00,66.3,52.4,29.99,SW,214,0.0,2.0,61,0.00,,,0.00,545,Wunderground v.1.15,2013-05-16 13:52:00,
2013-05-16 08:57:00,66.8,53.8,29.99,SW,214,0.0,2.0,63,0.00,,,0.00,563,Wunderground v.1.15,2013-05-16 13:57:00,
2013-05-16 09:02:00,67.2,53.7,29.99,SW,214,1.0,3.0,62,0.00,,,0.00,577,Wunderground v.1.15,2013-05-16 14:02:00,
2013-05-16 09:07:00,67.6,53.7,29.99,SSW,205,2.0,4.0,61,0.00,,,0.00,594,Wunderground v.1.15,2013-05-16 14:07:00,
2013-05-16 09:12:00,68.0,53.1,29.99,SSW,205,0.0,2.0,59,0.00,,,0.00,610,Wunderground v.1.15,2013-05-16 14:12:00,
2013-05-16 09:17:00,68.5,53.6,30.00,SSW,201,1.0,4.0,59,0.00,,,0.00,624,Wunderground v.1.15,2013-05-16 14:17:00,
2013-05-16 09:22:00,69.0,52.2,30.00,SSW,201,0.0,1.0,55,0.00,,,0.00,635,Wunderground v.1.15,2013-05-16 14:22:00,
2013-05-16 09:27:00,69.6,50.1,30.00,SSW,196,0.0,1.0,50,0.00,,,0.00,650,Wunderground v.1.15,2013-05-16 14:27:00,
2013-05-16 09:32:00,70.3,51.3,30.00,South,190,2.0,2.0,51,0.00,,,0.00,661,Wunderground v.1.15,2013-05-16 14:32:00,
2013-05-16 09:37:00,71.0,49.7,30.00,ENE,71,0.0,4.0,47,0.00,,,0.00,677,Wunderground v.1.15,2013-05-16 14:37:00,
2013-05-16 09:42:00,71.4,52.3,30.00,ENE,75,2.0,4.0,51,0.00,,,0.00,689,Wunderground v.1.15,2013-05-16 14:42:00,
2013-05-16 09:47:00,71.8,51.6,30.00,ENE,74,0.0,4.0,49,0.00,,,0.00,703,Wunderground v.1.15,2013-05-16 14:47:00,
2013-05-16 09:52:00,72.2,50.3,30.00,East,89,2.0,2.0,46,0.00,,,0.00,719,Wunderground v.1.15,2013-05-16 14:52:00,
2013-05-16 09:57:00,72.7,50.1,30.00,ESE,118,5.0,9.0,45,0.00,,,0.00,733,Wunderground v.1.15,2013-05-16 14:57:00,
2013-05-16 10:03:00,73.5,47.0,30.00,East,80,0.0,5.0,39,0.00,,,0.00,745,Wunderground v.1.15,2013-05-16 15:03:00,
2013-05-16 10:08:00,74.0,48.8,30.00,East,84,0.0,5.0,41,0.00,,,0.00,758,Wunderground v.1.15,2013-05-16 15:08:00,
2013-05-16 10:13:00,74.3,45.6,30.00,East,84,0.0,3.0,36,0.00,,,0.00,772,Wunderground v.1.15,2013-05-16 15:13:00,
2013-05-16 10:18:00,74.7,46.7,30.00,East,84,0.0,3.0,37,0.00,,,0.00,780,Wunderground v.1.15,2013-05-16 15:18:00,
2013-05-16 10:23:00,74.6,47.3,30.00,East,91,0.0,2.0,38,0.00,,,0.00,791,Wunderground v.1.15,2013-05-16 15:23:00,
2013-05-16 10:28:00,74.6,48.7,30.00,East,91,1.0,2.0,40,0.00,,,0.00,802,Wunderground v.1.15,2013-05-16 15:28:00,
2013-05-16 10:33:00,74.9,48.3,30.00,East,86,0.0,1.0,39,0.00,,,0.00,809,Wunderground v.1.15,2013-05-16 15:33:00,
2013-05-16 10:38:00,75.1,47.0,30.00,East,101,5.0,6.0,37,0.00,,,0.00,819,Wunderground v.1.15,2013-05-16 15:38:00,
2013-05-16 10:43:00,74.6,46.6,30.00,ESE,105,1.0,5.0,37,0.00,,,0.00,828,Wunderground v.1.15,2013-05-16 15:43:00,
2013-05-16 10:48:00,74.4,46.4,30.00,ESE,105,0.0,5.0,37,0.00,,,0.00,844,Wunderground v.1.15,2013-05-16 15:48:00,
2013-05-16 10:53:00,74.7,46.7,30.00,East,101,4.0,6.0,37,0.00,,,0.00,851,Wunderground v.1.15,2013-05-16 15:53:00,
2013-05-16 10:58:00,75.1,47.8,30.00,NNE,24,1.0,6.0,38,0.00,,,0.00,861,Wunderground v.1.15,2013-05-16 15:58:00,
2013-05-16 11:03:00,75.3,48.6,30.00,NNE,24,0.0,2.0,39,0.00,,,0.00,867,Wunderground v.1.15,2013-05-16 16:03:00,
2013-05-16 11:09:00,75.6,49.6,30.00,NNE,15,1.0,5.0,40,0.00,,,0.00,877,Wunderground v.1.15,2013-05-16 16:09:00,
2013-05-16 11:14:00,76.0,47.1,30.00,East,83,2.0,6.0,36,0.00,,,0.00,884,Wunderground v.1.15,2013-05-16 16:14:00,
2013-05-16 11:19:00,75.7,46.8,30.00,East,86,0.0,6.0,36,0.00,,,0.00,891,Wunderground v.1.15,2013-05-16 16:19:00,
2013-05-16 11:24:00,75.4,48.7,30.00,ESE,110,0.0,4.0,39,0.00,,,0.00,896,Wunderground v.1.15,2013-05-16 16:24:00,
2013-05-16 11:29:00,75.4,48.7,30.00,ESE,105,0.0,6.0,39,0.00,,,0.00,902,Wunderground v.1.15,2013-05-16 16:29:00,
2013-05-16 11:34:00,75.7,48.3,30.00,East,92,0.0,8.0,38,0.00,,,0.00,909,Wunderground v.1.15,2013-05-16 16:34:00,
2013-05-16 11:39:00,75.7,48.3,30.00,North,355,2.0,8.0,38,0.00,,,0.00,918,Wunderground v.1.15,2013-05-16 16:39:00,
2013-05-16 11:44:00,75.4,47.3,30.00,NNW,332,1.0,4.0,37,0.00,,,0.00,923,Wunderground v.1.15,2013-05-16 16:44:00,
2013-05-16 11:49:00,75.8,49.8,29.99,ENE,74,1.0,4.0,40,0.00,,,0.00,926,Wunderground v.1.15,2013-05-16 16:49:00,
2013-05-16 11:54:00,76.3,50.9,29.99,East,90,4.0,8.0,41,0.00,,,0.00,932,Wunderground v.1.15,2013-05-16 16:54:00,
2013-05-16 11:59:00,76.6,47.6,29.99,ESE,109,1.0,8.0,36,0.00,,,0.00,935,Wunderground v.1.15,2013-05-16 16:59:00,
2013-05-16 12:04:00,76.7,49.9,29.99,NNE,32,5.0,7.0,39,0.00,,,0.00,939,Wunderground v.1.15,2013-05-16 17:04:00,
2013-05-16 12:09:00,77.5,49.2,29.99,East,96,7.0,7.0,37,0.00,,,0.00,946,Wunderground v.1.15,2013-05-16 17:09:00,
2013-05-16 12:15:00,78.0,48.9,29.99,East,80,2.0,9.0,36,0.00,,,0.00,947,Wunderground v.1.15,2013-05-16 17:15:00,
2013-05-16 12:20:00,77.9,50.2,29.99,NE,51,0.0,2.0,38,0.00,,,0.00,951,Wunderground v.1.15,2013-05-16 17:20:00,
2013-05-16 12:25:00,78.2,48.3,29.98,ENE,69,2.0,5.0,35,0.00,,,0.00,951,Wunderground v.1.15,2013-05-16 17:25:00,
2013-05-16 12:30:00,78.4,50.0,29.98,SE,128,0.0,1.0,37,0.00,,,0.00,954,Wunderground v.1.15,2013-05-16 17:30:00,
2013-05-16 12:35:00,78.5,50.1,29.98,ENE,78,4.0,7.0,37,0.00,,,0.00,953,Wunderground v.1.15,2013-05-16 17:35:00,
2013-05-16 12:40:00,78.3,50.6,29.98,NNW,342,1.0,3.0,38,0.00,,,0.00,958,Wunderground v.1.15,2013-05-16 17:40:00,
2013-05-16 12:45:00,78.6,49.4,29.98,ENE,69,2.0,8.0,36,0.00,,,0.00,958,Wunderground v.1.15,2013-05-16 17:45:00,
2013-05-16 12:50:00,78.9,47.3,29.98,ENE,67,2.0,4.0,33,0.00,,,0.00,962,Wunderground v.1.15,2013-05-16 17:50:00,
2013-05-16 12:55:00,79.0,51.9,29.98,North,355,2.0,7.0,39,0.00,,,0.00,972,Wunderground v.1.15,2013-05-16 17:55:00,
2013-05-16 13:00:00,79.5,50.2,29.98,ENE,64,2.0,3.0,36,0.00,,,0.00,374,Wunderground v.1.15,2013-05-16 18:00:00,
2013-05-16 13:05:00,79.3,51.5,29.98,ENE,73,4.0,9.0,38,0.00,,,0.00,956,Wunderground v.1.15,2013-05-16 18:05:00,
2013-05-16 13:10:00,79.3,50.0,29.98,NNE,23,4.0,6.0,36,0.00,,,0.00,1002,Wunderground v.1.15,2013-05-16 18:10:00,
2013-05-16 13:15:00,79.7,51.8,29.98,NNE,24,3.0,9.0,38,0.00,,,0.00,1002,Wunderground v.1.15,2013-05-16 18:15:00,
2013-05-16 13:20:00,80.3,51.7,29.98,NNE,32,2.0,2.0,37,0.00,,,0.00,1005,Wunderground v.1.15,2013-05-16 18:20:00,
2013-05-16 13:25:00,80.5,54.0,29.98,NNE,33,0.0,5.0,40,0.00,,,0.00,988,Wunderground v.1.15,2013-05-16 18:25:00,
2013-05-16 13:30:00,80.7,50.5,29.98,NE,54,4.0,8.0,35,0.00,,,0.00,969,Wunderground v.1.15,2013-05-16 18:30:00,
2013-05-16 13:35:00,80.6,46.3,29.98,North,5,4.0,10.0,30,0.00,,,0.00,960,Wunderground v.1.15,2013-05-16 18:35:00,
2013-05-16 13:40:00,79.9,49.0,29.98,North,355,0.0,4.0,34,0.00,,,0.00,956,Wunderground v.1.15,2013-05-16 18:40:00,
2013-05-16 13:45:00,80.0,48.3,29.98,NNE,29,3.0,7.0,33,0.00,,,0.00,958,Wunderground v.1.15,2013-05-16 18:45:00,
2013-05-16 13:50:00,80.2,49.3,29.98,NNW,336,1.0,8.0,34,0.00,,,0.00,947,Wunderground v.1.15,2013-05-16 18:50:00,
2013-05-16 13:55:00,80.2,48.5,29.98,NNW,344,2.0,8.0,33,0.00,,,0.00,951,Wunderground v.1.15,2013-05-16 18:55:00,
2013-05-16 14:00:00,80.0,50.6,29.98,NNE,32,5.0,7.0,36,0.00,,,0.00,925,Wunderground v.1.15,2013-05-16 19:00:00,
2013-05-16 14:05:00,80.1,50.0,29.98,NNE,33,3.0,7.0,35,0.00,,,0.00,939,Wunderground v.1.15,2013-05-16 19:05:00,
2013-05-16 14:10:00,80.0,48.3,29.98,NE,40,6.0,7.0,33,0.00,,,0.00,926,Wunderground v.1.15,2013-05-16 19:10:00,
2013-05-16 14:15:00,79.9,51.3,29.97,ENE,60,2.0,9.0,37,0.00,,,0.00,911,Wunderground v.1.15,2013-05-16 19:15:00,
2013-05-16 14:20:00,80.1,49.2,29.97,SE,128,8.0,8.0,34,0.00,,,0.00,914,Wunderground v.1.15,2013-05-16 19:20:00,
2013-05-16 14:25:00,79.5,47.1,29.98,ENE,74,4.0,9.0,32,0.00,,,0.00,900,Wunderground v.1.15,2013-05-16 19:25:00,
2013-05-16 14:30:00,79.3,48.5,29.98,ESE,109,4.0,7.0,34,0.00,,,0.00,891,Wunderground v.1.15,2013-05-16 19:30:00,
2013-05-16 14:35:00,78.7,48.7,29.98,East,89,2.0,9.0,35,0.00,,,0.00,874,Wunderground v.1.15,2013-05-16 19:35:00,
2013-05-16 14:40:00,79.0,53.3,29.98,East,88,2.0,3.0,41,0.00,,,0.00,881,Wunderground v.1.15,2013-05-16 19:40:00,
2013-05-16 14:45:00,79.7,51.8,29.98,NNE,17,3.0,8.0,38,0.00,,,0.00,896,Wunderground v.1.15,2013-05-16 19:45:00,
2013-05-16 14:50:00,80.2,52.3,29.98,NE,47,4.0,6.0,38,0.00,,,0.00,856,Wunderground v.1.15,2013-05-16 19:50:00,
2013-05-16 14:55:00,80.3,53.8,29.98,ENE,69,5.0,7.0,40,0.00,,,0.00,846,Wunderground v.1.15,2013-05-16 19:55:00,
2013-05-16 15:00:00,80.3,53.1,29.98,East,93,5.0,5.0,39,0.00,,,0.00,824,Wunderground v.1.15,2013-05-16 20:00:00,
2013-05-16 15:05:00,80.1,52.2,29.98,ENE,73,3.0,13.0,38,0.00,,,0.00,824,Wunderground v.1.15,2013-05-16 20:05:00,
2013-05-16 15:10:00,80.0,52.1,29.98,NNE,24,7.0,7.0,38,0.00,,,0.00,816,Wunderground v.1.15,2013-05-16 20:10:00,
2013-05-16 15:15:00,79.9,54.1,29.97,ENE,63,5.0,10.0,41,0.00,,,0.00,796,Wunderground v.1.15,2013-05-16 20:15:00,
2013-05-16 15:20:00,79.8,53.3,29.97,ENE,58,4.0,4.0,40,0.00,,,0.00,789,Wunderground v.1.15,2013-05-16 20:20:00,
2013-05-16 15:25:00,79.5,53.1,29.97,ENE,76,8.0,9.0,40,0.00,,,0.00,708,Wunderground v.1.15,2013-05-16 20:25:00,
2013-05-16 15:30:00,79.0,52.6,29.97,ENE,69,3.0,6.0,40,0.00,,,0.00,575,Wunderground v.1.15,2013-05-16 20:30:00,
2013-05-16 15:35:00,78.5,54.1,29.97,ENE,63,3.0,10.0,43,0.00,,,0.00,700,Wunderground v.1.15,2013-05-16 20:35:00,
2013-05-16 15:40:00,78.1,50.4,29.97,NE,47,3.0,9.0,38,0.00,,,0.00,596,Wunderground v.1.15,2013-05-16 20:40:00,
2013-05-16 15:45:00,77.8,52.2,29.97,ENE,65,10.0,10.0,41,0.00,,,0.00,596,Wunderground v.1.15,2013-05-16 20:45:00,
2013-05-16 15:50:00,77.6,53.3,29.97,ENE,64,10.0,10.0,43,0.00,,,0.00,717,Wunderground v.1.15,2013-05-16 20:50:00,
2013-05-16 15:55:00,77.5,52.6,29.97,NNE,25,4.0,10.0,42,0.00,,,0.00,747,Wunderground v.1.15,2013-05-16 20:55:00,
2013-05-16 16:00:00,77.5,52.6,29.97,NE,53,3.0,7.0,42,0.00,,,0.00,788,Wunderground v.1.15,2013-05-16 21:00:00,
2013-05-16 16:05:00,77.8,53.5,29.97,ENE,78,4.0,7.0,43,0.00,,,0.00,696,Wunderground v.1.15,2013-05-16 21:05:00,
2013-05-16 16:10:00,78.0,53.0,29.97,East,90,2.0,10.0,42,0.00,,,0.00,657,Wunderground v.1.15,2013-05-16 21:10:00,
2013-05-16 16:15:00,77.4,51.9,29.98,NE,34,4.0,12.0,41,0.00,,,0.00,250,Wunderground v.1.15,2013-05-16 21:15:00,
2013-05-16 16:20:00,76.7,53.1,29.98,NE,42,4.0,5.0,44,0.00,,,0.00,221,Wunderground v.1.15,2013-05-16 21:20:00,
2013-05-16 16:26:00,76.4,52.2,29.97,East,93,1.0,12.0,43,0.00,,,0.00,747,Wunderground v.1.15,2013-05-16 21:26:00,
2013-05-16 16:31:00,76.6,53.1,29.97,NE,56,3.0,3.0,44,0.00,,,0.00,295,Wunderground v.1.15,2013-05-16 21:31:00,
2013-05-16 16:35:00,76.5,51.7,29.97,East,99,11.0,14.0,42,0.00,,,0.00,652,Wunderground v.1.15,2013-05-16 21:35:00,
2013-05-16 16:40:00,76.0,52.5,29.97,NE,55,11.0,12.0,44,0.00,,,0.00,610,Wunderground v.1.15,2013-05-16 21:40:00,
2013-05-16 16:45:00,75.9,51.8,29.97,NE,38,4.0,12.0,43,0.00,,,0.00,568,Wunderground v.1.15,2013-05-16 21:45:00,
2013-05-16 16:51:00,75.8,52.3,29.98,NE,46,3.0,7.0,44,0.00,,,0.00,559,Wunderground v.1.15,2013-05-16 21:51:00,
2013-05-16 16:56:00,75.8,51.7,29.98,ENE,61,3.0,7.0,43,0.00,,,0.00,520,Wunderground v.1.15,2013-05-16 21:56:00,
2013-05-16 17:00:00,75.5,52.1,29.98,NE,55,11.0,11.0,44,0.00,,,0.00,529,Wunderground v.1.15,2013-05-16 22:00:00,
2013-05-16 17:06:00,75.1,50.4,29.98,NE,46,2.0,17.0,42,0.00,,,0.00,492,Wunderground v.1.15,2013-05-16 22:06:00,
2013-05-16 17:11:00,75.0,50.3,29.98,ENE,62,3.0,10.0,42,0.00,,,0.00,469,Wunderground v.1.15,2013-05-16 22:11:00,
2013-05-16 17:16:00,74.8,50.2,29.98,NE,44,3.0,11.0,42,0.00,,,0.00,276,Wunderground v.1.15,2013-05-16 22:16:00,
2013-05-16 17:21:00,74.4,50.4,29.98,North,355,7.0,11.0,43,0.00,,,0.00,466,Wunderground v.1.15,2013-05-16 22:21:00,
2013-05-16 17:26:00,74.0,50.7,29.98,NE,45,7.0,11.0,44,0.00,,,0.00,439,Wunderground v.1.15,2013-05-16 22:26:00,
2013-05-16 17:31:00,73.9,51.2,29.98,NNE,30,2.0,5.0,45,0.00,,,0.00,380,Wunderground v.1.15,2013-05-16 22:31:00,
2013-05-16 17:36:00,74.1,50.2,29.98,ENE,63,4.0,7.0,43,0.00,,,0.00,406,Wunderground v.1.15,2013-05-16 22:36:00,
2013-05-16 17:41:00,74.0,48.8,29.98,ENE,72,1.0,9.0,41,0.00,,,0.00,392,Wunderground v.1.15,2013-05-16 22:41:00,
2013-05-16 17:46:00,73.8,49.9,29.98,NE,53,7.0,9.0,43,0.00,,,0.00,260,Wunderground v.1.15,2013-05-16 22:46:00,
2013-05-16 17:51:00,73.3,48.8,29.98,East,82,3.0,8.0,42,0.00,,,0.00,246,Wunderground v.1.15,2013-05-16 22:51:00,
2013-05-16 17:56:00,72.9,49.1,29.99,ENE,69,0.0,8.0,43,0.00,,,0.00,287,Wunderground v.1.15,2013-05-16 22:56:00,
2013-05-16 18:01:00,72.7,49.5,29.99,ENE,71,2.0,3.0,44,0.00,,,0.00,246,Wunderground v.1.15,2013-05-16 23:01:00,
2013-05-16 18:06:00,72.3,48.5,29.99,ESE,110,9.0,9.0,43,0.00,,,0.00,193,Wunderground v.1.15,2013-05-16 23:06:00,
2013-05-16 18:11:00,71.7,48.0,29.99,ENE,66,1.0,6.0,43,0.00,,,0.00,185,Wunderground v.1.15,2013-05-16 23:11:00,
2013-05-16 18:16:00,71.2,46.9,29.99,East,83,2.0,8.0,42,0.00,,,0.00,204,Wunderground v.1.15,2013-05-16 23:16:00,
2013-05-16 18:21:00,70.8,47.2,30.00,NE,45,2.0,3.0,43,0.00,,,0.00,169,Wunderground v.1.15,2013-05-16 23:21:00,
2013-05-16 18:26:00,70.4,46.8,29.99,ENE,70,3.0,12.0,43,0.00,,,0.00,146,Wunderground v.1.15,2013-05-16 23:26:00,
2013-05-16 18:31:00,70.0,47.1,30.00,ENE,73,1.0,6.0,44,0.00,,,0.00,132,Wunderground v.1.15,2013-05-16 23:31:00,
2013-05-16 18:36:00,69.7,47.4,30.00,East,101,5.0,8.0,45,0.00,,,0.00,127,Wunderground v.1.15,2013-05-16 23:36:00,
2013-05-16 18:41:00,69.3,46.4,30.00,ENE,64,4.0,11.0,44,0.00,,,0.00,142,Wunderground v.1.15,2013-05-16 23:41:00,
2013-05-16 18:46:00,69.0,46.2,30.00,ENE,78,3.0,11.0,44,0.00,,,0.00,114,Wunderground v.1.15,2013-05-16 23:46:00,
2013-05-16 18:51:00,68.6,47.0,30.00,ENE,75,0.0,3.0,46,0.00,,,0.00,107,Wunderground v.1.15,2013-05-16 23:51:00,
2013-05-16 18:56:00,68.3,47.3,30.00,East,94,1.0,7.0,47,0.00,,,0.00,107,Wunderground v.1.15,2013-05-16 23:56:00,
2013-05-16 19:01:00,68.0,47.6,30.00,ESE,102,0.0,2.0,48,0.00,,,0.00,84,Wunderground v.1.15,2013-05-17 00:01:00,
2013-05-16 19:06:00,67.7,46.2,30.00,East,97,1.0,7.0,46,0.00,,,0.00,79,Wunderground v.1.15,2013-05-17 00:06:00,
2013-05-16 19:11:00,67.3,45.8,30.00,ESE,111,9.0,11.0,46,0.00,,,0.00,84,Wunderground v.1.15,2013-05-17 00:11:00,
2013-05-16 19:16:00,66.9,44.9,30.00,ENE,74,5.0,11.0,45,0.00,,,0.00,86,Wunderground v.1.15,2013-05-17 00:16:00,
2013-05-16 19:21:00,66.5,45.1,30.00,East,94,1.0,8.0,46,0.00,,,0.00,76,Wunderground v.1.15,2013-05-17 00:21:00,
2013-05-16 19:26:00,66.1,44.1,30.00,ENE,64,2.0,11.0,45,0.00,,,0.00,60,Wunderground v.1.15,2013-05-17 00:26:00,
2013-05-16 19:31:00,65.7,43.2,30.00,NE,38,1.0,4.0,44,0.00,,,0.00,46,Wunderground v.1.15,2013-05-17 00:31:00,
2013-05-16 19:36:00,65.3,44.0,30.01,East,86,0.0,6.0,46,0.00,,,0.00,32,Wunderground v.1.15,2013-05-17 00:36:00,
2013-05-16 19:41:00,65.0,43.1,30.01,East,101,9.0,10.0,45,0.00,,,0.00,23,Wunderground v.1.15,2013-05-17 00:41:00,
2013-05-16 19:46:00,64.6,43.3,30.01,ENE,68,2.0,10.0,46,0.00,,,0.00,18,Wunderground v.1.15,2013-05-17 00:46:00,
2013-05-16 19:51:00,64.3,43.1,30.01,ENE,67,3.0,3.0,46,0.00,,,0.00,12,Wunderground v.1.15,2013-05-17 00:51:00,
2013-05-16 19:56:00,64.0,43.4,30.02,ENE,64,3.0,6.0,47,0.00,,,0.00,11,Wunderground v.1.15,2013-05-17 00:56:00,
2013-05-16 20:01:00,63.8,42.6,30.02,ENE,62,2.0,6.0,46,0.00,,,0.00,7,Wunderground v.1.15,2013-05-17 01:01:00,
2013-05-16 20:06:00,63.6,42.4,30.03,NE,41,0.0,6.0,46,0.00,,,0.00,0,Wunderground v.1.15,2013-05-17 01:06:00,
2013-05-16 20:11:00,63.4,43.4,30.03,NE,42,3.0,4.0,48,0.00,,,0.00,0,Wunderground v.1.15,2013-05-17 01:11:00,
2013-05-16 20:16:00,63.1,42.5,30.03,ENE,59,4.0,9.0,47,0.00,,,0.00,0,Wunderground v.1.15,2013-05-17 01:16:00,
2013-05-16 20:21:00,62.9,43.4,30.03,ENE,77,2.0,3.0,49,0.00,,,0.00,0,Wunderground v.1.15,2013-05-17 01:21:00,
2013-05-16 20:26:00,62.6,41.5,30.04,ENE,61,1.0,11.0,46,0.00,,,0.00,0,Wunderground v.1.15,2013-05-17 01:26:00,
2013-05-16 20:31:00,62.3,40.7,30.04,East,85,1.0,8.0,45,0.00,,,0.00,0,Wunderground v.1.15,2013-05-17 01:31:00,
2013-05-16 20:36:00,62.1,40.5,30.04,ENE,64,2.0,8.0,45,0.00,,,0.00,0,Wunderground v.1.15,2013-05-17 01:36:00,
2013-05-16 20:41:00,61.9,40.3,30.05,ENE,65,0.0,3.0,45,0.00,,,0.00,0,Wunderground v.1.15,2013-05-17 01:41:00,
2013-05-16 20:46:00,61.7,42.3,30.05,ENE,67,3.0,3.0,49,0.00,,,0.00,0,Wunderground v.1.15,2013-05-17 01:46:00,
2013-05-16 20:51:00,61.5,42.2,30.05,ENE,70,1.0,4.0,49,0.00,,,0.00,0,Wunderground v.1.15,2013-05-17 01:51:00,
2013-05-16 20:56:00,61.3,41.4,30.06,NE,50,5.0,5.0,48,0.00,,,0.00,0,Wunderground v.1.15,2013-05-17 01:56:00,
2013-05-16 21:01:00,61.1,41.2,30.06,NE,47,2.0,4.0,48,0.00,,,0.00,0,Wunderground v.1.15,2013-05-17 02:01:00,
2013-05-16 21:06:00,60.9,40.5,30.06,NE,46,5.0,10.0,47,0.00,,,0.00,0,Wunderground v.1.15,2013-05-17 02:06:00,
2013-05-16 21:11:00,60.8,39.9,30.06,NE,56,2.0,5.0,46,0.00,,,0.00,0,Wunderground v.1.15,2013-05-17 02:11:00,
2013-05-16 21:16:00,60.7,38.6,30.07,NE,46,1.0,8.0,44,0.00,,,0.00,0,Wunderground v.1.15,2013-05-17 02:16:00,
2013-05-16 21:21:00,60.5,37.9,30.07,NE,38,4.0,6.0,43,0.00,,,0.00,0,Wunderground v.1.15,2013-05-17 02:21:00,
2013-05-16 21:26:00,60.4,38.4,30.07,NE,39,4.0,6.0,44,0.00,,,0.00,0,Wunderground v.1.15,2013-05-17 02:26:00,
2013-05-16 21:31:00,60.3,38.3,30.07,NE,42,2.0,7.0,44,0.00,,,0.00,0,Wunderground v.1.15,2013-05-17 02:31:00,
2013-05-16 21:36:00,60.1,38.1,30.07,ENE,67,3.0,7.0,44,0.00,,,0.00,0,Wunderground v.1.15,2013-05-17 02:36:00,
2013-05-16 21:41:00,59.9,38.5,30.07,ENE,57,3.0,5.0,45,0.00,,,0.00,0,Wunderground v.1.15,2013-05-17 02:41:00,
2013-05-16 21:46:00,59.8,38.4,30.07,North,11,3.0,8.0,45,0.00,,,0.00,0,Wunderground v.1.15,2013-05-17 02:46:00,
2013-05-16 21:51:00,59.6,37.1,30.08,NNE,29,3.0,4.0,43,0.00,,,0.00,0,Wunderground v.1.15,2013-05-17 02:51:00,
2013-05-16 21:56:00,59.5,36.4,30.07,NE,55,4.0,8.0,42,0.00,,,0.00,0,Wunderground v.1.15,2013-05-17 02:56:00,
2013-05-16 22:01:00,59.4,36.9,30.08,NE,44,3.0,3.0,43,0.00,,,0.00,0,Wunderground v.1.15,2013-05-17 03:01:00,
2013-05-16 22:06:00,59.2,36.7,30.08,NE,49,4.0,5.0,43,0.00,,,0.00,0,Wunderground v.1.15,2013-05-17 03:06:00,
2013-05-16 22:11:00,59.1,36.0,30.08,ENE,57,2.0,10.0,42,0.00,,,0.00,0,Wunderground v.1.15,2013-05-17 03:11:00,
2013-05-16 22:16:00,58.9,36.4,30.08,NE,43,2.0,10.0,43,0.00,,,0.00,0,Wunderground v.1.15,2013-05-17 03:16:00,
2013-05-16 22:21:00,58.9,37.0,30.08,NE,37,2.0,5.0,44,0.00,,,0.00,0,Wunderground v.1.15,2013-05-17 03:21:00,
2013-05-16 22:26:00,58.7,36.8,30.08,NE,36,3.0,8.0,44,0.00,,,0.00,0,Wunderground v.1.15,2013-05-17 03:26:00,
2013-05-16 22:31:00,58.6,37.3,30.08,NE,39,3.0,5.0,45,0.00,,,0.00,0,Wunderground v.1.15,2013-05-17 03:31:00,
2013-05-16 22:36:00,58.4,37.7,30.08,NE,44,5.0,10.0,46,0.00,,,0.00,0,Wunderground v.1.15,2013-05-17 03:36:00,
2013-05-16 22:41:00,58.3,37.0,30.08,NE,38,4.0,11.0,45,0.00,,,0.00,0,Wunderground v.1.15,2013-05-17 03:41:00,
2013-05-16 22:47:00,58.2,37.5,30.08,NE,51,6.0,11.0,46,0.00,,,0.00,0,Wunderground v.1.15,2013-05-17 03:47:00,
2013-05-16 22:52:00,58.1,38.0,30.08,NE,36,5.0,6.0,47,0.00,,,0.00,0,Wunderground v.1.15,2013-05-17 03:52:00,
2013-05-16 22:57:00,58.1,38.0,30.08,NNE,26,4.0,10.0,47,0.00,,,0.00,0,Wunderground v.1.15,2013-05-17 03:57:00,
2013-05-16 23:01:00,58.0,37.9,30.08,NE,34,5.0,6.0,47,0.00,,,0.00,0,Wunderground v.1.15,2013-05-17 04:01:00,
2013-05-16 23:02:00,58.0,37.9,30.08,NE,43,6.0,11.0,47,0.00,,,0.00,0,Wunderground v.1.15,2013-05-17 04:02:00,
2013-05-16 23:07:00,58.0,37.3,30.07,NNE,32,4.0,11.0,46,0.00,,,0.00,0,Wunderground v.1.15,2013-05-17 04:07:00,
2013-05-16 23:12:00,58.0,37.9,30.07,NNE,27,3.0,7.0,47,0.00,,,0.00,0,Wunderground v.1.15,2013-05-17 04:12:00,
2013-05-16 23:17:00,58.0,38.9,30.07,NE,38,5.0,8.0,49,0.00,,,0.00,0,Wunderground v.1.15,2013-05-17 04:17:00,
2013-05-16 23:22:00,58.0,38.9,30.07,NE,37,3.0,12.0,49,0.00,,,0.00,0,Wunderground v.1.15,2013-05-17 04:22:00,
2013-05-16 23:27:00,58.0,38.9,30.08,NE,45,3.0,12.0,49,0.00,,,0.00,0,Wunderground v.1.15,2013-05-17 04:27:00,
2013-05-16 23:32:00,58.0,38.4,30.07,NE,34,5.0,12.0,48,0.00,,,0.00,0,Wunderground v.1.15,2013-05-17 04:32:00,
2013-05-16 23:37:00,58.0,38.4,30.08,NNE,31,4.0,12.0,48,0.00,,,0.00,0,Wunderground v.1.15,2013-05-17 04:37:00,
2013-05-16 23:43:00,58.0,37.9,30.08,NE,36,4.0,11.0,47,0.00,,,0.00,0,Wunderground v.1.15,2013-05-17 04:43:00,
2013-05-16 23:47:00,58.0,37.9,30.08,NNE,25,2.0,11.0,47,0.00,,,0.00,0,Wunderground v.1.15,2013-05-17 04:47:00,
2013-05-16 23:53:00,58.0,37.9,30.08,NNE,26,2.0,10.0,47,0.00,,,0.00,0,Wunderground v.1.15,2013-05-17 04:53:00,
2013-05-16 23:58:00,58.0,37.9,30.08,NE,39,3.0,10.0,47,0.00,,,0.00,0,Wunderground v.1.15,2013-05-17 04:58:00,